Overview Statistics Trail Chart Weather Telemetry Raw packets
 

This is the latest recevied weather packets stored in our database for station/object NI4CE-11. If no packets are shown the sender has not sent any weather packets the latest 10 day(s).

<< 147 148 149 150 151 152 153 >>
Time Temp. Humidity Pressure Rain* Wind** Luminosity Snow
1787770559 35.56° C 100% 1015.8 hPa 0 mm - - -
1787770465 35.56° C 100% 1015.8 hPa 0 mm - - -
1787770165 35.56° C 100% 1015.8 hPa 0 mm - - -
1787769945 35.56° C 100% 1015.9 hPa 0 mm - - -
1787769865 35.56° C 100% 1015.9 hPa 0 mm - - -
1787769565 36.11° C 100% 1016.1 hPa 0 mm - - -
1787769430 35.56° C 100% 1016.1 hPa 0 mm - - -
1787769265 35.56° C 100% 1016.1 hPa 0 mm - - -
1787768965 35° C 100% 1016.3 hPa 0 mm - - -
1787768752 34.44° C 100% 1016.2 hPa 0 mm - - -
1787768665 34.44° C 100% 1016.2 hPa 0 mm - - -
1787768365 34.44° C 100% 1016.4 hPa 0 mm - - -
1787768065 33.89° C 100% 1016.5 hPa 0 mm - - -
1787767914 33.89° C 100% 1016.5 hPa 0 mm - - -
1787767765 33.89° C 100% 1016.5 hPa 0 mm - - -
1787767466 33.89° C 100% 1016.6 hPa 0 mm - - -
1787767165 34.44° C 100% 1016.8 hPa 0 mm - - -
1787766943 33.89° C 100% 1016.8 hPa 0 mm - - -
1787766865 33.89° C 100% 1016.8 hPa 0 mm - - -
1787766565 33.89° C 100% 1016.9 hPa 0 mm - - -
1787766265 34.44° C 100% 1016.9 hPa 0 mm - - -
1787765965 34.44° C 100% 1017.1 hPa 0 mm - - -
1787765665 35° C 100% 1017.2 hPa 0 mm - - -
1787765366 33.89° C 100% 1017.3 hPa 0 mm - - -
1787765176 33.89° C 100% 1017.4 hPa 0 mm - - -

* Rain latest hour (hover to see other rain measurements)
** Current wind speed in m/s (hover to see current wind gust speed)